Regional Weather Roundup
Issued by NWS

Home | Current Version | Previous Version | Text Only | Print | Product List | Glossary On
Versions: 1 2 3 4 5 6 7 8 9 10 11 12 13 14 15 16 17 18 19 20 21 22 23 24 25 26 27
000
ASCA42 TJSJ 210610
RWRPR
PUERTO RICO/U.S. VIRGIN ISLANDS HOURLY WEATHER ROUNDUP
NATIONAL WEATHER SERVICE SAN JUAN PR
200 AM AST SAT JAN 21 2017

PRZ001>002-007>008-010-210700-
PUERTO RICO

CITY           SKY/WX    TMP DP  RH WIND       PRES   REMARKS
SAN JUAN LMM   PTCLDY    73  68  83 SW5       30.01F
PONCE          PTCLDY    66  64  94 CALM      30.02F
AGUADILLA      PTCLDY    64  63  94 CALM      30.03F
CEIBA          CLEAR     64  64 100 NW6       30.02F
$$

VIZ001>002-210700-
U.S. VIRGIN ISLANDS

CITY           SKY/WX    TMP DP  RH WIND       PRES   REMARKS
CHARLOTTE AMA  PTCLDY    72  68  88 CALM      29.99F
CHRISTIANSTED  CLEAR     68  64  88 N3        30.00F
$$

HOURLY WEATHER ROUNDUP FOR THE NEWS MEDIA

CITY           SKY/WX    TMP DP  RH WIND       PRES   REMARKS
ORLANDO        CLEAR     68  63  84 SW7       29.97F
NEW YORK       CLOUDY    43  43 100 S6        29.94S FOG
NEWARK         DRIZZLE   42  41  96 SW5       29.93S FOG
CHICAGO        DRZL/FOG  42  41  96 CALM      29.61F VSB 1
HARTFORD       CLOUDY    39  34  82 CALM      29.91F
BOSTON         CLOUDY    37  35  92 SW9       29.92S FOG     WCI  30
DALLAS         CLEAR     59  45  59 W3        29.65S
PHILADELPHIA   CLOUDY    42  40  92 CALM      29.93F FOG
LOS ANGELES    MOCLDY    55  45  68 W26G37    29.57R
WASHINGTON DC  CLOUDY    47  46  97 SW7       29.90S FOG



USA.gov is the U.S. government's official web portal to all federal, state and local government web resources and services.